Location: Diebersbach
(48.5163°N, 8.0558°E)
Time: 09:00:04
(UTC+00:00)

CZ-4C R/B - Pass Details

Date: 20 June 2021
Orbit: 606 x 1396 km, 63.4° (Epoch: 01 August)

Event Time Altitude Azimuth Distance (km) Brightness Sun altitude
Exits shadow 01:11:18 - 146° (SE) 2,668 4.5 -14.5°
Reaches altitude 10° 01:14:14 10° 117° (ESE) 2,216 4.4 -14.3°
Maximum altitude 01:15:27 11° 103° (ESE) 2,208 4.5 -14.2°
Drops below altitude 10° 01:16:42 10° 89° (E) 2,317 4.8 -14.1°
Sets 01:21:28 0° 55° (NE) 3,472 6.5 -13.8°
